McGregor, MN

9:01 PM CDT on August 23, 2017 (GMT -0500)
McGregor

Weather History for KHZX - February, 2013

Change the Weather History Date:

Thursday, February 28, 2013

  Actual Average (KAIT) Record (KAIT)
Temperature  
Mean Temperature 26 °F -  
Max Temperature 32 °F 32 °F 48 °F (1961)
Min Temperature 21 °F 11 °F -32 °F (1962)
Degree Days  
Heating Degree Days 38    
Moisture  
Dew Point 19 °F    
Average Humidity 70    
Maximum Humidity 86    
Minimum Humidity 51    
Precipitation  
Precipitation 0.00 in - - ()
Sea Level Pressure  
Sea Level Pressure 30.17 in    
Wind  
Wind Speed 8 mph (NNE)    
Max Wind Speed 13 mph    
Max Gust Speed 18 mph    
Visibility 10 miles    
Events      
Averages and records for this station are not official NWS values.
T = Trace of Precipitation, MM = Missing Value Source: NWS Daily Summary

Daily Weather History Graph

Daily Weather History Graph

Search for Another Location

Airport or City:

Trip Planner

Search our weather history database for the weather conditions in past years. The results will help you decide how hot, cold, wet, or windy it might be!

Date:

Astronomy

Feb. 28, 2013 Rise Set
Actual Time 6:54 AM CST 5:58 PM CST
Civil Twilight 6:23 AM CST 6:28 PM CST
Nautical Twilight 5:48 AM CST 7:03 PM CST
Astronomical Twilight 5:13 AM CST 7:38 PM CST
Moon 9:42 PM CST (2/28) 7:50 AM CST (2/28)
Length of Visible Light 12h 04m
Length of Day
11h 04m
Waning Gibbous, 90% of the Moon is Illuminated
Feb 28
Waning Gibbous
Mar 4
Last Quarter
Mar 11
New
Mar 19
First Quarter
Mar 27
Full

Hourly Weather History & Observations

Time (CST) Temp. Windchill Dew Point Humidity Pressure Visibility Wind Dir Wind Speed Gust Speed Precip Events Conditions
12:12 AM 30.2 °F 21.3 °F 23.0 °F 75% 30.06 in 10.0 mi North 10.4 mph 17.3 mph N/A   Overcast
12:33 AM 30.2 °F 21.3 °F 23.0 °F 75% 30.06 in 10.0 mi NE 10.4 mph 17.3 mph N/A   Overcast
12:53 AM 30.2 °F 21.9 °F 23.0 °F 75% 30.07 in 10.0 mi North 9.2 mph - N/A   Overcast
1:12 AM 30.2 °F 21.9 °F 23.0 °F 75% 30.07 in 10.0 mi North 9.2 mph - N/A   Overcast
1:32 AM 28.4 °F 20.4 °F 21.2 °F 74% 30.07 in 10.0 mi NNE 8.1 mph - N/A   Overcast
1:52 AM 28.4 °F 19.1 °F 21.2 °F 74% 30.07 in 10.0 mi North 10.4 mph 18.4 mph N/A   Overcast
2:12 AM 28.4 °F 20.4 °F 21.2 °F 74% 30.07 in 10.0 mi NNE 8.1 mph 16.1 mph N/A   Overcast
2:32 AM 28.4 °F 18.0 °F 21.2 °F 74% 30.07 in 10.0 mi NNE 12.7 mph 18.4 mph N/A   Overcast
2:53 AM 28.4 °F 20.4 °F 21.2 °F 74% 30.08 in 10.0 mi North 8.1 mph - N/A   Overcast
3:12 AM 28.4 °F 18.5 °F 21.2 °F 74% 30.09 in 10.0 mi North 11.5 mph 17.3 mph N/A   Overcast
3:53 AM 28.4 °F 18.5 °F 21.2 °F 74% 30.09 in 10.0 mi North 11.5 mph - N/A   Overcast
4:13 AM 28.4 °F 19.1 °F 21.2 °F 74% 30.10 in 10.0 mi North 10.4 mph - N/A   Overcast
4:30 AM 28.4 °F 19.7 °F 21.2 °F 74% 30.11 in 10.0 mi North 9.2 mph - N/A   Overcast
4:53 AM 28.4 °F 21.2 °F 21.2 °F 74% 30.11 in 10.0 mi North 6.9 mph - N/A   Overcast
5:13 AM 26.6 °F 16.8 °F 21.2 °F 80% 30.12 in 10.0 mi North 10.4 mph - N/A   Overcast
5:31 AM 26.6 °F 19.1 °F 21.2 °F 80% 30.13 in 10.0 mi NNE 6.9 mph - N/A   Overcast
6:12 AM 26.6 °F 17.5 °F 19.4 °F 74% 30.13 in 10.0 mi NNE 9.2 mph - N/A   Overcast
6:31 AM 26.6 °F 19.1 °F 19.4 °F 74% 30.14 in 10.0 mi NNE 6.9 mph - N/A   Overcast
6:52 AM 26.6 °F 18.2 °F 19.4 °F 74% 30.14 in 10.0 mi North 8.1 mph - N/A   Overcast
7:13 AM 26.6 °F 19.1 °F 19.4 °F 74% 30.15 in 10.0 mi North 6.9 mph - N/A   Overcast
7:33 AM 26.6 °F 17.5 °F 19.4 °F 74% 30.16 in 10.0 mi NNE 9.2 mph - N/A   Overcast
7:52 AM 26.6 °F 16.8 °F 19.4 °F 74% 30.16 in 10.0 mi NNE 10.4 mph - N/A   Overcast
8:13 AM 26.6 °F 17.5 °F 19.4 °F 74% 30.16 in 10.0 mi NNE 9.2 mph - N/A   Overcast
8:33 AM 26.6 °F 16.8 °F 19.4 °F 74% 30.16 in 10.0 mi NNE 10.4 mph - N/A   Overcast
8:52 AM 26.6 °F 19.1 °F 19.4 °F 74% 30.17 in 10.0 mi NNE 6.9 mph - N/A   Overcast
9:12 AM 26.6 °F 16.8 °F 19.4 °F 74% 30.17 in 10.0 mi NNE 10.4 mph - N/A   Overcast
9:32 AM 26.6 °F 18.2 °F 19.4 °F 74% 30.17 in 10.0 mi North 8.1 mph - N/A   Overcast
9:53 AM 26.6 °F 16.8 °F 19.4 °F 74% 30.17 in 10.0 mi North 10.4 mph 16.1 mph N/A   Overcast
10:13 AM 26.6 °F 19.1 °F 19.4 °F 74% 30.18 in 10.0 mi NNE 6.9 mph - N/A   Overcast
10:32 AM 26.6 °F 18.2 °F 19.4 °F 74% 30.18 in 10.0 mi North 8.1 mph - N/A   Overcast
10:53 AM 26.6 °F 18.2 °F 19.4 °F 74% 30.18 in 10.0 mi NNE 8.1 mph - N/A   Overcast
11:13 AM 26.6 °F 17.5 °F 17.6 °F 69% 30.19 in 10.0 mi NNE 9.2 mph - N/A   Overcast
11:31 AM 26.6 °F 16.8 °F 17.6 °F 69% 30.19 in 10.0 mi NNE 10.4 mph - N/A   Overcast
11:52 AM 26.6 °F 17.5 °F 17.6 °F 69% 30.19 in 10.0 mi NNE 9.2 mph - N/A   Overcast
12:12 PM 28.4 °F 21.2 °F 17.6 °F 64% 30.19 in 10.0 mi NNE 6.9 mph - N/A   Overcast
12:33 PM 28.4 °F 19.7 °F 17.6 °F 64% 30.19 in 10.0 mi NNE 9.2 mph - N/A   Overcast
12:53 PM 28.4 °F 21.2 °F 17.6 °F 64% 30.19 in 10.0 mi ENE 6.9 mph - N/A   Overcast
1:12 PM 30.2 °F 23.4 °F 17.6 °F 60% 30.19 in 10.0 mi ENE 6.9 mph - N/A   Mostly Cloudy
1:31 PM 30.2 °F 24.3 °F 17.6 °F 60% 30.18 in 10.0 mi East 5.8 mph - N/A   Mostly Cloudy
1:53 PM 32.0 °F 28.7 °F 17.6 °F 55% 30.18 in 10.0 mi ENE 3.5 mph - N/A   Mostly Cloudy
2:12 PM 32.0 °F - 17.6 °F 55% 30.17 in 10.0 mi Calm Calm - N/A   Scattered Clouds
2:32 PM 32.0 °F 28.7 °F 17.6 °F 55% 30.17 in 10.0 mi NE 3.5 mph - N/A   Clear
2:53 PM 32.0 °F 27.5 °F 17.6 °F 55% 30.17 in 10.0 mi NNE 4.6 mph - N/A   Clear
3:12 PM 32.0 °F 28.7 °F 17.6 °F 55% 30.17 in 10.0 mi North 3.5 mph - N/A   Clear
3:33 PM 32.0 °F 26.4 °F 17.6 °F 55% 30.17 in 10.0 mi North 5.8 mph - N/A   Clear
3:53 PM 32.0 °F 27.5 °F 15.8 °F 51% 30.17 in 10.0 mi East 4.6 mph - N/A   Clear
4:13 PM 32.0 °F 25.6 °F 15.8 °F 51% 30.17 in 10.0 mi NNE 6.9 mph - N/A   Clear
4:33 PM 32.0 °F 28.7 °F 15.8 °F 51% 30.18 in 10.0 mi North 3.5 mph - N/A   Clear
4:53 PM 32.0 °F 26.4 °F 17.6 °F 55% 30.18 in 10.0 mi NNE 5.8 mph - N/A   Clear
5:12 PM 32.0 °F 27.5 °F 17.6 °F 55% 30.18 in 10.0 mi North 4.6 mph - N/A   Clear
5:33 PM 32.0 °F 27.5 °F 17.6 °F 55% 30.19 in 10.0 mi North 4.6 mph - N/A   Clear
5:53 PM 30.2 °F 23.4 °F 17.6 °F 60% 30.19 in 10.0 mi North 6.9 mph - N/A   Clear
6:12 PM 30.2 °F 25.4 °F 17.6 °F 60% 30.20 in 10.0 mi NE 4.6 mph - N/A   Clear
6:33 PM 28.4 °F 22.2 °F 17.6 °F 64% 30.21 in 10.0 mi East 5.8 mph - N/A   Clear
6:52 PM 26.6 °F 21.2 °F 17.6 °F 69% 30.22 in 10.0 mi East 4.6 mph - N/A   Clear
7:12 PM 26.6 °F 20.0 °F 17.6 °F 69% 30.22 in 10.0 mi East 5.8 mph - N/A   Clear
7:30 PM 24.8 °F 16.9 °F 17.6 °F 74% 30.22 in 10.0 mi East 6.9 mph - N/A   Clear
7:53 PM 24.8 °F 16.9 °F 17.6 °F 74% 30.23 in 10.0 mi East 6.9 mph - N/A   Clear
8:12 PM 23.0 °F 15.8 °F 17.6 °F 80% 30.24 in 10.0 mi East 5.8 mph - N/A   Clear
8:33 PM 23.0 °F 17.0 °F 17.6 °F 80% 30.25 in 10.0 mi East 4.6 mph - N/A   Clear
9:13 PM 23.0 °F 18.4 °F 17.6 °F 80% 30.25 in 10.0 mi NE 3.5 mph - N/A   Clear
9:33 PM 23.0 °F 18.4 °F 17.6 °F 80% 30.25 in 10.0 mi NNE 3.5 mph - N/A   Clear
10:12 PM 23.0 °F 17.0 °F 17.6 °F 80% 30.25 in 10.0 mi NNE 4.6 mph - N/A   Clear
10:31 PM 23.0 °F 15.8 °F 17.6 °F 80% 30.25 in 10.0 mi NNE 5.8 mph - N/A   Clear
10:53 PM 23.0 °F 18.4 °F 17.6 °F 80% 30.25 in 10.0 mi NNE 3.5 mph - N/A   Clear
11:13 PM 21.2 °F 16.4 °F 17.6 °F 86% 30.26 in 10.0 mi NNE 3.5 mph - N/A   Clear
11:31 PM 21.2 °F 14.9 °F 17.6 °F 86% 30.25 in 10.0 mi ENE 4.6 mph - N/A   Scattered Clouds
11:53 PM 21.2 °F 14.9 °F 17.6 °F 86% 30.25 in 10.0 mi NE 4.6 mph - N/A   Mostly Cloudy